Regional Weather Roundup
Issued by NWS

Home | Current Version | Previous Version | Text Only | Print | Product List | Glossary Off
Versions: 1 2 3 4 5 6 7 8 9 10 11 12 13 14 15 16 17 18 19 20 21 22 23 24 25 26 27 28 29 30 31 32 33 34 35 36 37 38 39 40 41 42 43 44 45 46 47 48 49 50

000
ASUS43 KFSD 042302
RWRSD

WEATHER ROUNDUP FOR SOUTH DAKOTA
NATIONAL WEATHER SERVICE SIOUX FALLS SD
600 PM CDT MON MAY 04 2015

NOTE: "FAIR" INDICATES FEW OR NO CLOUDS BELOW 12,000 FEET WITH NO
SIGNIFICANT WEATHER AND/OR OBSTRUCTIONS TO VISIBILITY.


SDZ001>005-009-010-012>017-050000-
NORTHWEST AND NORTH CENTRAL SOUTH DAKOTA

CITY           SKY/WX    TMP DP  RH WIND       PRES   REMARKS
BUFFALO          N/A     59  32  36 SE26G37   30.03F
FAITH            N/A     50  40  68 E12       30.14F
MOBRIDGE       CLOUDY    66  23  19 VRB5      30.14F
$$

SDZ012>016-024>037-041>051-057-063-072>074-050000-
SOUTHWEST AND SOUTH CENTRAL SOUTH DAKOTA

CITY           SKY/WX    TMP DP  RH WIND       PRES   REMARKS
RAPID CTY ARPT CLOUDY    59  32  36 SE17G25   30.12F
PIERRE         CLOUDY    67  22  18 NE12      30.13F
CUSTER         CLOUDY    45  33  63 SE9G16    30.15F
ELLSWORTH AFB  CLOUDY    58  35  40 S17G24    30.11F
PHILIP         CLOUDY    65  25  22 E15       30.12F
PINE RIDGE     CLOUDY    56  34  43 SE5       30.14S
WINNER         CLOUDY    68  25  19 NE10      30.12S
$$

SDZ004>011-016>023-039-040-050000-
NORTHEAST SOUTH DAKOTA

CITY           SKY/WX    TMP DP  RH WIND       PRES   REMARKS
ABERDEEN       CLOUDY    69  25  19 NE7       30.16S
WATERTOWN      CLOUDY    67  24  19 E8        30.17S
BROOKINGS      PTSUNNY   70  27  19 NE9       30.15S
SISSETON         N/A     70  23  17 VRB6      30.16S
$$

SDZ017-020-022-023-036>040-048>070-050000-
SOUTHEAST SOUTH DAKOTA

CITY           SKY/WX    TMP DP  RH WIND       PRES   REMARKS
SIOUX FALLS    CLOUDY    70  28  21 E8        30.13R
HURON          CLOUDY    71  25  17 E10       30.13S
MITCHELL       CLOUDY    72  26  18 SE12      30.12S
YANKTON        CLOUDY    66  41  39 SE16      30.10R
$$

ABBREVIATIONS USED IN REMARKS
   TC - TEMPERATURE IN CELSIUS
  WCI - WIND CHILL INDEX
   HX - HEAT INDEX
  VSB - VISIBILITY



USA.gov is the U.S. government's official web portal to all federal, state and local government web resources and services.